FENGYUN 1C DEB

Satellite information

Favourite Embed

Satellite Type and Status

DEBRISIN ORBIT

Key statistics

Satellite FENGYUN 1C DEB at a glance.

Uptime

9494

Days in orbit

Revolutions

≈ 14.1

Per day

Orbit

SSO

Sun Synchronous Orbit

Inclination

99.3

Latest

Satellite identification and parameters

Extended collection of information and parameters for FENGYUN 1C DEB.

Object identification

Identified? True

Debris? True

Object name: FENGYUN 1C DEB

International designator: 1999-025TA

Object number (NORAD): 30145

Object ID (CCSDS): 30145

Country: PEOPLES REPUBLIC OF CHINA (PRC)

Current information (Y/N): Y

RCS size: SMALL

Orbital parameters

Period: 102.021 minutes

Inclination: 99.2648 deg

SMA: 7232.455 km

Apoapsis: 920.582 km

Periapsis: 788.059 km

RAAN: 228.9455 deg

Eccentricy: 0.0091617

Argument of periapsis: 44.7963 deg

Mean anomaly: 71.685 deg

Mean motion: 14.11478096 rev/day

Mean motion (dot): 0.00005119 rev/day2

B* drag term: 0.0027378 1/REarth

Two-line elements (TLE)

Creation date: May 7, 2025, 3:14 a.m.

Reference frame: TEME

Reference center: EARTH

Epoch: May 6, 2025, 9:58 p.m. UTC

TLE line 0: 0 FENGYUN 1C DEB

TLE line 1: 1 30145U 99025TA 25126.91546687 .00005119 00000-0 27378-2 0 9995

TLE line 2: 2 30145 99.2648 228.9455 0091617 44.7963 71.6850 14.11478096930926

Live tracking on map

Real-time ground track for satellite FENGYUN 1C DEB.

In-orbit conjunctions

A list of the most updated potential collisions computed for object FENGYUN 1C DEB.

Target Orbit TCA Probability of collision Miss distance Type
METEOR 2-20 DEB LEO 2024-12-09 01:32:11 0.0005592607 248.0 (m) DEBRIS
FENGYUN 1C DEB SSO 2024-11-10 07:49:10 0.0001548954 986.0 (m) DEBRIS

Associated space launch

Chinese polar orbiting meteorological satellite

FENGYUN 1C DEB was lifted into orbit during the mission ‘Long March 4B | Feng Yun 1C’, on board a Long March 4B space rocket.

The launch took place on May 10, 1999, 1:33 a.m. from Launch Complex 7.

For more information about the launch, click the button.

Launch to space Long March 4B | Feng Yun 1C
Long March 4B | Feng Yun 1C

Agency: N/A

Status: Launch Successful

Launch date: May 10, 1999, 1:33 a.m. UTC

Rocket: Long March 4B

Launch pad: Launch Complex 7

Location: Taiyuan Satellite Launch Center, People's Republic of China

...

Latest news about this satellite

There are no fresh news available about this satellite. Check back as we update our databases every day.


Newsletter sign-up

Weekly statistics, charts and insights to help you stay on top of the space industry.